Location: Detroit
(42.3310°N, 83.0460°W)
Time: 20:26:40
(UTC-04:00)

A-11 Canister half - Pass Details

Date: 12 February 2023
Orbit: 1526 x 1682 km, 47.3° (Epoch: 29 March)

Event Time Altitude Azimuth Distance (km) Brightness Sun altitude
Rises 02:28:21 0° 206° (SSW) 4,719 - -53.9°
Reaches altitude 10° 02:31:42 10° 199° (SSW) 3,721 - -53.5°
Maximum altitude 02:40:03 38° 135° (SE) 2,177 - -52.3°
Exits shadow 02:44:37 24° 88° (E) 2,732 10.5 -51.7°
Drops below altitude 10° 02:48:20 10° 72° (ENE) 3,696 11.4 -51.2°
Sets 02:51:38 0° 64° (ENE) 4,685 12.2 -50.7°
